Marysville, CA

8:29 AM PST on December 14, 2017 (GMT -0800)
Yuba County

Weather History for KMYV - February, 2013

Change the Weather History Date:

Monday, February 18, 2013

  Actual Average Record
Temperature  
Mean Temperature 48 °F -  
Max Temperature 60 °F 62 °F 78 °F (1977)
Min Temperature 35 °F 43 °F 31 °F (1975)
Degree Days  
Heating Degree Days 18    
Moisture  
Dew Point 40 °F    
Average Humidity 76    
Maximum Humidity 100    
Minimum Humidity 51    
Precipitation  
Precipitation 0.00 in - - ()
Sea Level Pressure  
Sea Level Pressure 29.96 in    
Wind  
Wind Speed 7 mph (SSE)    
Max Wind Speed 18 mph    
Max Gust Speed 28 mph    
Visibility 10 miles    
Events      
Averages and records for this station are not official NWS values.
T = Trace of Precipitation, MM = Missing Value Source: NWS Daily Summary

Daily Weather History Graph

Daily Weather History Graph

Search for Another Location

Airport or City:

Trip Planner

Search our weather history database for the weather conditions in past years. The results will help you decide how hot, cold, wet, or windy it might be!

Date:

Astronomy

Feb. 18, 2013 Rise Set
Actual Time 6:53 AM PST 5:47 PM PST
Civil Twilight 6:26 AM PST 6:14 PM PST
Nautical Twilight 5:55 AM PST 6:45 PM PST
Astronomical Twilight 5:24 AM PST 7:16 PM PST
Moon 11:38 AM PST (2/18) 1:36 AM PST (2/18)
Length of Visible Light 11h 48m
Length of Day
10h 53m
First Quarter, 59% of the Moon is Illuminated
Feb 18
First Quarter
Feb 25
Full
Mar 4
Last Quarter
Mar 11
New
Mar 19
First Quarter

Hourly Weather History & Observations

Time (PST) Temp. Windchill Dew Point Humidity Pressure Visibility Wind Dir Wind Speed Gust Speed Precip Events Conditions
12:53 AM 39.0 °F - 37.0 °F 93% 30.00 in 10.0 mi Calm Calm - N/A   Clear
1:53 AM 39.0 °F 36.8 °F 37.0 °F 93% 30.00 in 10.0 mi ESE 3.5 mph - N/A   Clear
2:53 AM 41.0 °F 38.0 °F 39.0 °F 93% 29.99 in 9.0 mi East 4.6 mph - N/A   Clear
3:53 AM 37.9 °F - 36.0 °F 93% 29.98 in 9.0 mi Calm Calm - N/A   Clear
4:53 AM 36.0 °F - 36.0 °F 100% 29.98 in 6.0 mi Calm Calm - N/A   Clear
5:53 AM 35.1 °F - 34.0 °F 96% 29.99 in 8.0 mi Calm Calm - N/A   Clear
6:53 AM 37.9 °F 35.5 °F 36.0 °F 93% 29.99 in 10.0 mi SE 3.5 mph - N/A   Clear
7:53 AM 41.0 °F 39.0 °F 37.9 °F 89% 30.01 in 10.0 mi East 3.5 mph - N/A   Clear
8:53 AM 48.9 °F - 44.1 °F 83% 30.02 in 10.0 mi SSE 10.4 mph - N/A   Clear
9:53 AM 53.1 °F - 44.1 °F 71% 30.01 in 10.0 mi SSE 10.4 mph - N/A   Clear
10:53 AM 55.9 °F - 45.0 °F 67% 30.00 in 10.0 mi SSE 15.0 mph - N/A   Clear
11:53 AM 60.1 °F - 42.1 °F 51% 29.99 in 10.0 mi SSE 16.1 mph - N/A   Clear
12:53 PM 60.1 °F - 44.1 °F 55% 29.96 in 10.0 mi South 16.1 mph - N/A   Clear
1:53 PM 59.0 °F - 44.1 °F 58% 29.94 in 10.0 mi South 16.1 mph 23.0 mph N/A   Clear
2:53 PM 55.9 °F - 43.0 °F 62% 29.91 in 10.0 mi South 17.3 mph - N/A   Partly Cloudy
3:53 PM 55.0 °F - 41.0 °F 59% 29.91 in 10.0 mi SSW 18.4 mph 27.6 mph N/A   Partly Cloudy
4:53 PM 53.1 °F - 39.9 °F 61% 29.91 in 10.0 mi South 16.1 mph - N/A   Partly Cloudy
5:53 PM 51.1 °F - 41.0 °F 68% 29.91 in 10.0 mi SSE 12.7 mph - N/A   Clear
6:53 PM 50.0 °F - 39.9 °F 68% 29.91 in 10.0 mi SE 16.1 mph - N/A   Clear
7:53 PM 48.9 °F - 39.9 °F 71% 29.93 in 10.0 mi SE 16.1 mph 23.0 mph N/A   Clear
8:53 PM 48.0 °F - 39.0 °F 71% 29.90 in 10.0 mi SE 17.3 mph 26.5 mph N/A   Mostly Cloudy
9:53 PM 48.0 °F - 39.0 °F 71% 29.94 in 10.0 mi SSE 15.0 mph - N/A   Mostly Cloudy
10:53 PM 46.0 °F 40.2 °F 39.0 °F 76% 29.92 in 10.0 mi SE 12.7 mph 20.7 mph N/A   Clear
11:53 PM 46.0 °F 40.2 °F 39.9 °F 79% 29.92 in 10.0 mi SSE 12.7 mph 20.7 mph N/A   Mostly Cloudy